Вернуться в каталог

OPS 4682 DEB

АктивенPO
NORAD 38372·DEBRIS·🇺🇸 United States

Запущен Apr 3, 1965 с Vandenberg Space Force Base

Loading…

Ближайшие Пролёты (ближайшие 24 часа)

TLE

СвежийSource: Space-Track

Эпоха: Sep 14, 2026, 09:17 UTC

1 38372U 65027BZ  26257.38700271  .00000569  00000-0  19184-2 0  9998
2 38372  90.3135  42.4924 0031750 159.6316 200.6079 12.97957880675040

Отслеживайте OPS 4682 DEB в реальном времени с AllMySat

Download on the App Store